Time,TemperatureF,DewpointF,PressureIn,WindDirection,WindDirectionDegrees,WindSpeedMPH,WindSpeedGustMPH,Humidity,HourlyPrecipIn,Conditions,Clouds,dailyrainin,SoftwareType,DateUTC
2013-01-11 00:00:00,66.6,66.2,30.29,SW,225,2.0,4.0,99,0.00,,,0.00,meteohub,2013-01-11 05:00:00,
2013-01-11 00:02:00,66.6,66.2,30.29,SW,225,2.0,4.0,99,0.00,,,0.00,meteohub,2013-01-11 05:02:00,
2013-01-11 00:03:00,66.6,66.2,30.29,SW,225,2.0,4.0,99,0.00,,,0.00,meteohub,2013-01-11 05:03:00,
2013-01-11 00:04:00,66.6,66.2,30.29,SW,225,2.0,4.0,99,0.00,,,0.00,meteohub,2013-01-11 05:04:00,
2013-01-11 00:09:00,66.4,66.0,30.29,South,180,2.0,4.0,99,0.00,,,0.00,meteohub,2013-01-11 05:09:00,
2013-01-11 00:14:00,66.4,66.0,30.29,South,180,0.0,4.0,99,0.00,,,0.00,meteohub,2013-01-11 05:14:00,
2013-01-11 00:19:00,66.2,65.8,30.29,South,180,2.0,3.0,99,0.00,,,0.00,meteohub,2013-01-11 05:19:00,
2013-01-11 00:24:00,66.0,65.7,30.29,SW,225,1.0,3.0,99,0.00,,,0.00,meteohub,2013-01-11 05:24:00,
2013-01-11 00:30:00,66.0,65.7,30.29,South,180,0.0,2.0,99,0.00,,,0.00,meteohub,2013-01-11 05:30:00,
2013-01-11 00:35:00,65.8,65.5,30.29,SE,135,0.0,2.0,99,0.00,,,0.00,meteohub,2013-01-11 05:35:00,
2013-01-11 00:40:00,65.5,65.1,30.29,SE,135,0.0,2.0,99,0.00,,,0.00,meteohub,2013-01-11 05:40:00,
2013-01-11 00:45:00,65.5,65.1,30.28,SE,135,0.0,1.0,99,0.00,,,0.00,meteohub,2013-01-11 05:45:00,
2013-01-11 00:50:00,64.9,64.6,30.28,SE,135,0.0,0.0,99,0.00,,,0.00,meteohub,2013-01-11 05:50:00,
2013-01-11 00:55:00,65.1,64.8,30.29,SE,135,0.0,0.0,99,0.00,,,0.00,meteohub,2013-01-11 05:55:00,
2013-01-11 01:00:00,64.9,64.6,30.28,SE,135,0.0,0.0,99,0.00,,,0.00,meteohub,2013-01-11 06:00:00,
2013-01-11 01:05:00,64.9,64.6,30.28,SE,135,0.0,0.0,99,0.00,,,0.00,meteohub,2013-01-11 06:05:00,
2013-01-11 01:10:00,64.4,64.0,30.28,SE,135,0.0,0.0,99,0.00,,,0.00,meteohub,2013-01-11 06:10:00,
2013-01-11 01:15:00,64.4,64.0,30.27,SE,135,0.0,0.0,99,0.00,,,0.00,meteohub,2013-01-11 06:15:00,
2013-01-11 01:21:00,64.4,64.0,30.27,South,180,3.0,4.0,99,0.00,,,0.00,meteohub,2013-01-11 06:21:00,
2013-01-11 01:26:00,64.6,64.2,30.27,SE,135,3.0,5.0,99,0.00,,,0.00,meteohub,2013-01-11 06:26:00,
2013-01-11 01:31:00,64.6,64.2,30.27,South,180,2.0,5.0,99,0.00,,,0.00,meteohub,2013-01-11 06:31:00,
2013-01-11 01:36:00,64.6,64.2,30.27,South,180,2.0,4.0,99,0.00,,,0.00,meteohub,2013-01-11 06:36:00,
2013-01-11 01:41:00,64.6,64.2,30.27,South,180,2.0,3.0,99,0.00,,,0.00,meteohub,2013-01-11 06:41:00,
2013-01-11 01:46:00,64.4,64.0,30.27,South,180,2.0,2.0,99,0.00,,,0.00,meteohub,2013-01-11 06:46:00,
2013-01-11 01:51:00,64.4,64.0,30.27,South,180,0.0,2.0,99,0.00,,,0.00,meteohub,2013-01-11 06:51:00,
2013-01-11 01:56:00,64.2,63.9,30.26,South,180,0.0,2.0,99,0.00,,,0.00,meteohub,2013-01-11 06:56:00,
2013-01-11 02:01:00,64.2,63.9,30.26,South,180,0.0,2.0,99,0.00,,,0.00,meteohub,2013-01-11 07:01:00,
2013-01-11 02:06:00,64.2,63.9,30.26,South,180,0.0,2.0,99,0.00,,,0.00,meteohub,2013-01-11 07:06:00,
2013-01-11 02:11:00,64.2,63.9,30.26,South,180,0.0,1.0,99,0.00,,,0.00,meteohub,2013-01-11 07:11:00,
2013-01-11 02:16:00,64.0,63.7,30.26,NW,315,1.0,0.0,99,0.00,,,0.00,meteohub,2013-01-11 07:16:00,
2013-01-11 02:22:00,64.0,63.7,30.26,NW,315,0.0,2.0,99,0.00,,,0.00,meteohub,2013-01-11 07:22:00,
2013-01-11 02:27:00,64.0,63.7,30.25,West,270,0.0,2.0,99,0.00,,,0.00,meteohub,2013-01-11 07:27:00,
2013-01-11 02:32:00,63.9,63.5,30.25,South,180,0.0,2.0,99,0.00,,,0.00,meteohub,2013-01-11 07:32:00,
2013-01-11 02:37:00,63.9,63.5,30.25,South,180,0.0,1.0,99,0.00,,,0.00,meteohub,2013-01-11 07:37:00,
2013-01-11 02:42:00,63.9,63.5,30.25,South,180,0.0,1.0,99,0.00,,,0.00,meteohub,2013-01-11 07:42:00,
2013-01-11 02:47:00,63.9,63.5,30.25,South,180,0.0,1.0,99,0.00,,,0.00,meteohub,2013-01-11 07:47:00,
2013-01-11 02:52:00,63.9,63.5,30.25,South,180,0.0,1.0,99,0.00,,,0.00,meteohub,2013-01-11 07:52:00,
2013-01-11 02:57:00,63.9,63.5,30.24,South,180,0.0,1.0,99,0.00,,,0.00,meteohub,2013-01-11 07:57:00,
2013-01-11 03:02:00,64.0,63.7,30.24,South,180,0.0,0.0,99,0.00,,,0.00,meteohub,2013-01-11 08:02:00,
2013-01-11 03:07:00,64.0,63.7,30.25,South,180,0.0,0.0,99,0.00,,,0.00,meteohub,2013-01-11 08:07:00,
2013-01-11 03:12:00,63.9,63.5,30.25,South,180,0.0,0.0,99,0.00,,,0.00,meteohub,2013-01-11 08:12:00,
2013-01-11 03:17:00,63.7,63.3,30.24,South,180,0.0,0.0,99,0.00,,,0.00,meteohub,2013-01-11 08:17:00,
2013-01-11 03:22:00,63.5,63.1,30.24,South,180,0.0,0.0,99,0.00,,,0.00,meteohub,2013-01-11 08:22:00,
2013-01-11 03:27:00,63.5,63.1,30.24,South,180,0.0,0.0,99,0.00,,,0.00,meteohub,2013-01-11 08:27:00,
2013-01-11 03:32:00,63.5,63.1,30.24,South,180,0.0,0.0,99,0.00,,,0.00,meteohub,2013-01-11 08:32:00,
2013-01-11 03:37:00,63.5,63.1,30.24,South,180,0.0,0.0,99,0.00,,,0.00,meteohub,2013-01-11 08:37:00,
2013-01-11 03:42:00,63.3,63.0,30.24,South,180,0.0,0.0,99,0.00,,,0.00,meteohub,2013-01-11 08:42:00,
2013-01-11 03:47:00,63.3,63.0,30.24,South,180,0.0,0.0,99,0.00,,,0.00,meteohub,2013-01-11 08:47:00,
2013-01-11 03:52:00,63.7,63.3,30.24,South,180,5.0,0.0,99,0.00,,,0.00,meteohub,2013-01-11 08:52:00,
2013-01-11 03:57:00,63.9,63.5,30.23,South,180,2.0,5.0,99,0.00,,,0.00,meteohub,2013-01-11 08:57:00,
2013-01-11 04:02:00,64.0,63.7,30.23,South,180,0.0,5.0,99,0.00,,,0.00,meteohub,2013-01-11 09:02:00,
2013-01-11 04:07:00,64.0,63.7,30.23,South,180,0.0,5.0,99,0.00,,,0.00,meteohub,2013-01-11 09:07:00,
2013-01-11 04:12:00,64.2,63.9,30.23,East,90,0.0,2.0,99,0.00,,,0.00,meteohub,2013-01-11 09:12:00,
2013-01-11 04:17:00,64.4,64.0,30.23,SE,135,0.0,0.0,99,0.00,,,0.00,meteohub,2013-01-11 09:17:00,
2013-01-11 04:22:00,64.4,64.0,30.23,East,90,0.0,2.0,99,0.00,,,0.00,meteohub,2013-01-11 09:22:00,
2013-01-11 04:27:00,64.6,64.2,30.23,East,90,2.0,3.0,99,0.00,,,0.00,meteohub,2013-01-11 09:27:00,
2013-01-11 04:32:00,64.6,64.2,30.23,East,90,0.0,3.0,99,0.00,,,0.00,meteohub,2013-01-11 09:32:00,
2013-01-11 04:37:00,64.6,64.2,30.23,East,90,2.0,2.0,99,0.00,,,0.00,meteohub,2013-01-11 09:37:00,
2013-01-11 04:42:00,64.6,64.2,30.23,East,90,2.0,2.0,99,0.00,,,0.00,meteohub,2013-01-11 09:42:00,
2013-01-11 04:47:00,64.6,64.2,30.23,East,90,1.0,2.0,99,0.00,,,0.00,meteohub,2013-01-11 09:47:00,
2013-01-11 04:52:00,64.4,64.0,30.22,East,90,2.0,2.0,99,0.00,,,0.00,meteohub,2013-01-11 09:52:00,
2013-01-11 04:57:00,64.4,64.0,30.22,SE,135,2.0,3.0,99,0.00,,,0.00,meteohub,2013-01-11 09:57:00,
2013-01-11 05:02:00,64.2,63.9,30.22,SE,135,3.0,3.0,99,0.00,,,0.00,meteohub,2013-01-11 10:02:00,
2013-01-11 05:07:00,64.2,63.9,30.22,SE,135,3.0,3.0,99,0.00,,,0.00,meteohub,2013-01-11 10:07:00,
2013-01-11 05:12:00,64.0,63.7,30.22,South,180,4.0,4.0,99,0.00,,,0.00,meteohub,2013-01-11 10:12:00,
2013-01-11 05:17:00,64.0,63.7,30.21,South,180,2.0,4.0,99,0.00,,,0.00,meteohub,2013-01-11 10:17:00,
2013-01-11 05:22:00,64.0,63.7,30.21,SE,135,2.0,4.0,99,0.00,,,0.00,meteohub,2013-01-11 10:22:00,
2013-01-11 05:27:00,63.9,63.5,30.22,SE,135,2.0,4.0,99,0.00,,,0.00,meteohub,2013-01-11 10:27:00,
2013-01-11 05:32:00,63.9,63.5,30.22,South,180,0.0,3.0,99,0.00,,,0.00,meteohub,2013-01-11 10:32:00,
2013-01-11 05:37:00,63.7,63.3,30.22,South,180,0.0,2.0,99,0.00,,,0.00,meteohub,2013-01-11 10:37:00,
2013-01-11 05:42:00,63.7,63.3,30.22,South,180,0.0,2.0,99,0.00,,,0.00,meteohub,2013-01-11 10:42:00,
2013-01-11 05:47:00,63.7,63.3,30.22,East,90,0.0,2.0,99,0.00,,,0.00,meteohub,2013-01-11 10:47:00,
2013-01-11 05:52:00,63.7,63.3,30.22,East,90,0.0,2.0,99,0.00,,,0.00,meteohub,2013-01-11 10:52:00,
2013-01-11 05:57:00,63.5,63.1,30.22,East,90,0.0,2.0,99,0.00,,,0.00,meteohub,2013-01-11 10:57:00,
2013-01-11 06:02:00,63.3,63.0,30.22,East,90,0.0,2.0,99,0.00,,,0.00,meteohub,2013-01-11 11:02:00,
2013-01-11 06:07:00,63.3,63.0,30.22,East,90,0.0,2.0,99,0.00,,,0.00,meteohub,2013-01-11 11:07:00,
2013-01-11 06:12:00,63.0,62.6,30.22,East,90,0.0,2.0,99,0.00,,,0.00,meteohub,2013-01-11 11:12:00,
2013-01-11 06:17:00,63.1,62.8,30.22,East,90,0.0,2.0,99,0.00,,,0.00,meteohub,2013-01-11 11:17:00,
2013-01-11 06:22:00,62.8,62.4,30.22,East,90,0.0,2.0,99,0.00,,,0.00,meteohub,2013-01-11 11:22:00,
2013-01-11 06:27:00,62.6,62.2,30.22,South,180,0.0,2.0,99,0.00,,,0.00,meteohub,2013-01-11 11:27:00,
2013-01-11 06:32:00,62.4,62.1,30.22,South,180,0.0,2.0,99,0.00,,,0.00,meteohub,2013-01-11 11:32:00,
2013-01-11 06:38:00,62.6,62.2,30.22,South,180,0.0,2.0,99,0.00,,,0.00,meteohub,2013-01-11 11:38:00,
2013-01-11 06:43:00,62.6,62.2,30.22,South,180,0.0,2.0,99,0.00,,,0.00,meteohub,2013-01-11 11:43:00,
2013-01-11 06:48:00,62.8,62.4,30.23,South,180,0.0,0.0,99,0.00,,,0.00,meteohub,2013-01-11 11:48:00,
2013-01-11 06:53:00,63.0,62.6,30.22,South,180,0.0,0.0,99,0.00,,,0.00,meteohub,2013-01-11 11:53:00,
2013-01-11 06:58:00,62.8,62.4,30.22,South,180,0.0,0.0,99,0.00,,,0.00,meteohub,2013-01-11 11:58:00,
2013-01-11 07:03:00,62.6,62.2,30.23,South,180,0.0,0.0,99,0.00,,,0.00,meteohub,2013-01-11 12:03:00,
2013-01-11 07:08:00,62.4,62.1,30.23,South,180,0.0,0.0,99,0.00,,,0.00,meteohub,2013-01-11 12:08:00,
2013-01-11 07:13:00,62.6,62.2,30.23,East,90,2.0,0.0,99,0.00,,,0.00,meteohub,2013-01-11 12:13:00,
2013-01-11 07:18:00,62.8,62.4,30.23,East,90,0.0,2.0,99,0.00,,,0.00,meteohub,2013-01-11 12:18:00,
2013-01-11 07:24:00,62.8,62.4,30.23,East,90,0.0,2.0,99,0.00,,,0.00,meteohub,2013-01-11 12:24:00,
2013-01-11 07:29:00,62.8,62.4,30.23,East,90,0.0,2.0,99,0.00,,,0.00,meteohub,2013-01-11 12:29:00,
2013-01-11 07:34:00,62.8,62.4,30.23,SE,135,0.0,2.0,99,0.00,,,0.00,meteohub,2013-01-11 12:34:00,
2013-01-11 07:39:00,63.0,62.6,30.23,South,180,0.0,0.0,99,0.00,,,0.00,meteohub,2013-01-11 12:39:00,
2013-01-11 07:44:00,63.0,62.6,30.23,SSE,158,3.0,0.0,99,0.00,,,0.00,meteohub,2013-01-11 12:44:00,
2013-01-11 07:49:00,63.1,62.8,30.23,South,180,2.0,2.0,99,0.00,,,0.00,meteohub,2013-01-11 12:49:00,
2013-01-11 07:54:00,63.3,63.0,30.24,South,180,0.0,4.0,99,0.00,,,0.00,meteohub,2013-01-11 12:54:00,
2013-01-11 07:59:00,63.5,63.1,30.24,SE,135,2.0,4.0,99,0.00,,,0.00,meteohub,2013-01-11 12:59:00,
2013-01-11 08:04:00,63.9,63.5,30.24,SE,135,2.0,4.0,99,0.00,,,0.00,meteohub,2013-01-11 13:04:00,
2013-01-11 08:09:00,64.2,63.9,30.25,South,180,2.0,3.0,99,0.00,,,0.00,meteohub,2013-01-11 13:09:00,
2013-01-11 08:15:00,64.8,64.4,30.25,SE,135,1.0,3.0,99,0.00,,,0.00,meteohub,2013-01-11 13:15:00,
2013-01-11 08:20:00,65.5,65.1,30.25,SE,135,2.0,3.0,99,0.00,,,0.00,meteohub,2013-01-11 13:20:00,
2013-01-11 08:25:00,66.0,65.7,30.25,East,90,2.0,3.0,99,0.00,,,0.00,meteohub,2013-01-11 13:25:00,
2013-01-11 08:30:00,66.6,66.2,30.26,SE,135,3.0,3.0,99,0.00,,,0.00,meteohub,2013-01-11 13:30:00,
2013-01-11 08:35:00,67.1,66.7,30.26,East,90,2.0,4.0,99,0.00,,,0.00,meteohub,2013-01-11 13:35:00,
2013-01-11 08:40:00,67.6,67.3,30.27,SE,135,4.0,4.0,99,0.00,,,0.00,meteohub,2013-01-11 13:40:00,
2013-01-11 08:45:00,68.2,67.8,30.27,East,90,4.0,4.0,99,0.00,,,0.00,meteohub,2013-01-11 13:45:00,
2013-01-11 08:50:00,68.5,68.2,30.27,SE,135,3.0,4.0,99,0.00,,,0.00,meteohub,2013-01-11 13:50:00,
2013-01-11 08:55:00,69.3,68.9,30.27,East,90,4.0,4.0,99,0.00,,,0.00,meteohub,2013-01-11 13:55:00,
2013-01-11 09:00:00,69.6,69.3,30.27,East,90,4.0,7.0,99,0.00,,,0.00,meteohub,2013-01-11 14:00:00,
2013-01-11 09:05:00,70.0,69.6,30.27,East,90,5.0,7.0,99,0.00,,,0.00,meteohub,2013-01-11 14:05:00,
2013-01-11 09:11:00,70.5,70.2,30.27,SE,135,3.0,7.0,99,0.00,,,0.00,meteohub,2013-01-11 14:11:00,
2013-01-11 09:16:00,70.9,70.5,30.27,South,180,7.0,7.0,99,0.00,,,0.00,meteohub,2013-01-11 14:16:00,
2013-01-11 09:21:00,71.4,71.1,30.27,South,180,3.0,7.0,99,0.00,,,0.00,meteohub,2013-01-11 14:21:00,
2013-01-11 09:26:00,71.8,71.4,30.27,South,180,5.0,7.0,99,0.00,,,0.00,meteohub,2013-01-11 14:26:00,
2013-01-11 09:31:00,72.0,71.6,30.27,South,180,2.0,7.0,99,0.00,,,0.00,meteohub,2013-01-11 14:31:00,
2013-01-11 09:36:00,72.7,72.3,30.27,South,180,6.0,6.0,99,0.00,,,0.00,meteohub,2013-01-11 14:36:00,
2013-01-11 09:41:00,73.0,72.7,30.27,SE,135,6.0,7.0,99,0.00,,,0.00,meteohub,2013-01-11 14:41:00,
2013-01-11 09:46:00,73.6,73.2,30.27,South,180,8.0,8.0,99,0.00,,,0.00,meteohub,2013-01-11 14:46:00,
2013-01-11 09:51:00,74.1,73.8,30.27,SSE,158,8.0,8.0,99,0.00,,,0.00,meteohub,2013-01-11 14:51:00,
2013-01-11 09:56:00,74.8,74.5,30.27,South,180,5.0,8.0,99,0.00,,,0.00,meteohub,2013-01-11 14:56:00,
2013-01-11 10:01:00,75.4,74.8,30.27,South,180,8.0,9.0,98,0.00,,,0.00,meteohub,2013-01-11 15:01:00,
2013-01-11 10:06:00,75.7,75.2,30.27,South,180,4.0,9.0,98,0.00,,,0.00,meteohub,2013-01-11 15:06:00,
2013-01-11 10:12:00,76.1,74.5,30.27,SE,135,8.0,9.0,95,0.00,,,0.00,meteohub,2013-01-11 15:12:00,
2013-01-11 10:17:00,76.3,73.4,30.27,South,180,12.0,12.0,91,0.00,,,0.00,meteohub,2013-01-11 15:17:00,
2013-01-11 10:22:00,76.8,73.6,30.27,South,180,5.0,12.0,90,0.01,,,0.01,meteohub,2013-01-11 15:22:00,
2013-01-11 10:27:00,77.2,72.3,30.27,SW,225,7.0,12.0,85,0.01,,,0.01,meteohub,2013-01-11 15:27:00,
2013-01-11 10:32:00,77.5,72.3,30.27,South,180,8.0,12.0,84,0.01,,,0.01,meteohub,2013-01-11 15:32:00,
2013-01-11 10:37:00,77.7,72.1,30.26,South,180,7.0,11.0,83,0.01,,,0.01,meteohub,2013-01-11 15:37:00,
2013-01-11 10:42:00,78.1,71.8,30.27,West,270,4.0,8.0,81,0.01,,,0.01,meteohub,2013-01-11 15:42:00,
2013-01-11 10:47:00,78.6,72.3,30.26,SW,225,8.0,9.0,81,0.01,,,0.01,meteohub,2013-01-11 15:47:00,
2013-01-11 10:52:00,79.0,69.6,30.25,South,180,10.0,10.0,73,0.01,,,0.01,meteohub,2013-01-11 15:52:00,
2013-01-11 10:57:00,79.0,69.6,30.25,West,270,9.0,11.0,73,0.01,,,0.01,meteohub,2013-01-11 15:57:00,
2013-01-11 11:02:00,79.3,69.1,30.25,South,180,8.0,11.0,71,0.01,,,0.01,meteohub,2013-01-11 16:02:00,
2013-01-11 11:07:00,79.5,68.0,30.25,SE,135,10.0,11.0,68,0.01,,,0.01,meteohub,2013-01-11 16:07:00,
2013-01-11 11:12:00,79.5,68.0,30.25,South,180,8.0,13.0,68,0.01,,,0.01,meteohub,2013-01-11 16:12:00,
2013-01-11 11:17:00,79.5,68.9,30.25,SW,225,10.0,13.0,70,0.01,,,0.01,meteohub,2013-01-11 16:17:00,
2013-01-11 11:22:00,79.0,68.4,30.25,SW,225,11.0,13.0,70,0.00,,,0.01,meteohub,2013-01-11 16:22:00,
2013-01-11 11:27:00,79.5,67.1,30.25,South,180,8.0,15.0,66,0.00,,,0.01,meteohub,2013-01-11 16:27:00,
2013-01-11 11:32:00,80.1,66.7,30.24,SW,225,11.0,15.0,64,0.00,,,0.01,meteohub,2013-01-11 16:32:00,
2013-01-11 11:37:00,80.1,66.4,30.24,SW,225,11.0,15.0,63,0.00,,,0.01,meteohub,2013-01-11 16:37:00,
2013-01-11 11:42:00,79.9,66.2,30.24,South,180,10.0,14.0,63,0.00,,,0.01,meteohub,2013-01-11 16:42:00,
2013-01-11 11:47:00,79.9,66.6,30.24,SW,225,12.0,12.0,64,0.00,,,0.01,meteohub,2013-01-11 16:47:00,
2013-01-11 11:52:00,80.8,66.0,30.25,South,180,9.0,12.0,61,0.00,,,0.01,meteohub,2013-01-11 16:52:00,
2013-01-11 11:57:00,80.6,64.9,30.24,South,180,11.0,12.0,59,0.00,,,0.01,meteohub,2013-01-11 16:57:00,
2013-01-11 12:02:00,80.6,65.5,30.24,South,180,6.0,12.0,60,0.00,,,0.01,meteohub,2013-01-11 17:02:00,
2013-01-11 12:07:00,81.0,64.2,30.24,SW,225,14.0,15.0,57,0.00,,,0.01,meteohub,2013-01-11 17:07:00,
2013-01-11 12:12:00,81.5,63.9,30.23,West,270,15.0,15.0,55,0.00,,,0.01,meteohub,2013-01-11 17:12:00,
2013-01-11 12:17:00,81.7,64.4,30.23,West,270,8.0,15.0,56,0.00,,,0.01,meteohub,2013-01-11 17:17:00,
2013-01-11 12:22:00,80.8,65.1,30.23,West,270,4.0,15.0,59,0.00,,,0.01,meteohub,2013-01-11 17:22:00,
2013-01-11 12:27:00,81.3,64.0,30.23,SW,225,4.0,15.0,56,0.00,,,0.01,meteohub,2013-01-11 17:27:00,
2013-01-11 12:32:00,81.0,64.2,30.22,SW,225,8.0,10.0,57,0.00,,,0.01,meteohub,2013-01-11 17:32:00,
2013-01-11 12:37:00,80.8,64.0,30.22,SW,225,8.0,10.0,57,0.00,,,0.01,meteohub,2013-01-11 17:37:00,
2013-01-11 12:42:00,80.6,63.0,30.22,South,180,4.0,11.0,55,0.00,,,0.01,meteohub,2013-01-11 17:42:00,
2013-01-11 12:47:00,81.0,63.3,30.22,SW,225,11.0,11.0,55,0.00,,,0.01,meteohub,2013-01-11 17:47:00,
2013-01-11 12:52:00,81.7,62.4,30.21,SW,225,14.0,14.0,52,0.00,,,0.01,meteohub,2013-01-11 17:52:00,
2013-01-11 12:57:00,81.9,62.4,30.21,SW,225,11.0,14.0,52,0.00,,,0.01,meteohub,2013-01-11 17:57:00,
2013-01-11 13:02:00,81.0,63.3,30.21,West,270,5.0,14.0,55,0.00,,,0.01,meteohub,2013-01-11 18:02:00,
2013-01-11 13:07:00,81.3,64.0,30.20,West,270,7.0,14.0,56,0.00,,,0.01,meteohub,2013-01-11 18:07:00,
2013-01-11 13:12:00,82.4,61.3,30.20,West,270,9.0,11.0,49,0.00,,,0.01,meteohub,2013-01-11 18:12:00,
2013-01-11 13:17:00,81.7,61.9,30.20,West,270,8.0,14.0,51,0.00,,,0.01,meteohub,2013-01-11 18:17:00,
2013-01-11 13:22:00,81.0,63.3,30.20,SW,225,6.0,14.0,55,0.00,,,0.01,meteohub,2013-01-11 18:22:00,
2013-01-11 13:27:00,80.8,63.1,30.19,SW,225,5.0,14.0,55,0.00,,,0.01,meteohub,2013-01-11 18:27:00,
2013-01-11 13:32:00,81.1,63.5,30.19,SW,225,5.0,10.0,55,0.00,,,0.01,meteohub,2013-01-11 18:32:00,
2013-01-11 13:37:00,82.0,62.6,30.19,SW,225,8.0,11.0,52,0.00,,,0.01,meteohub,2013-01-11 18:37:00,
2013-01-11 13:42:00,82.4,61.3,30.19,SW,225,7.0,11.0,49,0.00,,,0.01,meteohub,2013-01-11 18:42:00,
2013-01-11 13:47:00,82.6,60.3,30.18,SW,225,8.0,11.0,47,0.00,,,0.01,meteohub,2013-01-11 18:47:00,
2013-01-11 13:52:00,82.8,60.4,30.18,SW,225,7.0,10.0,47,0.00,,,0.01,meteohub,2013-01-11 18:52:00,
2013-01-11 13:57:00,82.9,60.1,30.18,SW,225,6.0,10.0,46,0.00,,,0.01,meteohub,2013-01-11 18:57:00,
2013-01-11 14:02:00,83.1,61.3,30.18,SW,225,6.0,10.0,48,0.00,,,0.01,meteohub,2013-01-11 19:02:00,
2013-01-11 14:07:00,82.9,60.1,30.17,SE,135,6.0,11.0,46,0.00,,,0.01,meteohub,2013-01-11 19:07:00,
2013-01-11 14:12:00,83.3,58.5,30.17,West,270,11.0,11.0,43,0.00,,,0.01,meteohub,2013-01-11 19:12:00,
2013-01-11 14:17:00,83.8,59.0,30.17,SW,225,4.0,11.0,43,0.00,,,0.01,meteohub,2013-01-11 19:17:00,
2013-01-11 14:22:00,84.4,59.4,30.17,West,270,5.0,11.0,43,0.00,,,0.01,meteohub,2013-01-11 19:22:00,
2013-01-11 14:27:00,84.0,57.7,30.16,SW,225,15.0,15.0,41,0.00,,,0.01,meteohub,2013-01-11 19:27:00,
2013-01-11 14:32:00,83.5,58.6,30.16,SW,225,9.0,15.0,43,0.00,,,0.01,meteohub,2013-01-11 19:32:00,
2013-01-11 14:37:00,83.3,56.5,30.16,SSW,203,13.0,15.0,40,0.00,,,0.01,meteohub,2013-01-11 19:37:00,
2013-01-11 14:42:00,83.5,57.4,30.16,West,270,11.0,15.0,41,0.00,,,0.01,meteohub,2013-01-11 19:42:00,
2013-01-11 14:47:00,83.7,56.8,30.16,South,180,11.0,13.0,40,0.00,,,0.01,meteohub,2013-01-11 19:47:00,
2013-01-11 14:52:00,84.0,56.5,30.16,SW,225,12.0,13.0,39,0.00,,,0.01,meteohub,2013-01-11 19:52:00,
2013-01-11 14:57:00,84.2,56.5,30.16,South,180,8.0,13.0,39,0.00,,,0.01,meteohub,2013-01-11 19:57:00,
2013-01-11 15:02:00,84.2,55.0,30.16,South,180,11.0,13.0,37,0.00,,,0.01,meteohub,2013-01-11 20:02:00,
2013-01-11 15:07:00,84.0,54.9,30.15,SW,225,12.0,15.0,37,0.00,,,0.01,meteohub,2013-01-11 20:07:00,
2013-01-11 15:12:00,83.5,55.9,30.15,SW,225,12.0,15.0,39,0.00,,,0.01,meteohub,2013-01-11 20:12:00,
2013-01-11 15:17:00,82.9,57.6,30.14,SW,225,6.0,15.0,42,0.00,,,0.01,meteohub,2013-01-11 20:17:00,
2013-01-11 15:22:00,83.5,57.9,30.15,SW,225,9.0,12.0,42,0.00,,,0.01,meteohub,2013-01-11 20:22:00,
2013-01-11 15:27:00,83.8,58.3,30.14,SW,225,8.0,12.0,42,0.00,,,0.01,meteohub,2013-01-11 20:27:00,
2013-01-11 15:32:00,84.2,57.9,30.14,NNW,338,7.0,11.0,41,0.00,,,0.01,meteohub,2013-01-11 20:32:00,
2013-01-11 15:37:00,84.4,58.8,30.14,South,180,5.0,11.0,42,0.00,,,0.01,meteohub,2013-01-11 20:37:00,
2013-01-11 15:42:00,84.6,57.6,30.15,West,270,9.0,12.0,40,0.00,,,0.01,meteohub,2013-01-11 20:42:00,
2013-01-11 15:47:00,84.0,58.5,30.15,South,180,4.0,12.0,42,0.00,,,0.01,meteohub,2013-01-11 20:47:00,
2013-01-11 15:52:00,83.7,58.1,30.14,SW,225,10.0,11.0,42,0.00,,,0.01,meteohub,2013-01-11 20:52:00,
2013-01-11 15:57:00,82.9,59.4,30.15,West,270,4.0,11.0,45,0.00,,,0.01,meteohub,2013-01-11 20:57:00,
2013-01-11 16:03:00,82.9,59.4,30.14,South,180,4.0,10.0,45,0.00,,,0.01,meteohub,2013-01-11 21:03:00,
2013-01-11 16:08:00,83.1,59.0,30.14,South,180,7.0,10.0,44,0.00,,,0.01,meteohub,2013-01-11 21:08:00,
2013-01-11 16:13:00,83.1,58.3,30.14,SW,225,8.0,8.0,43,0.00,,,0.01,meteohub,2013-01-11 21:13:00,
2013-01-11 16:18:00,82.8,57.9,30.15,SW,225,6.0,11.0,43,0.00,,,0.01,meteohub,2013-01-11 21:18:00,
2013-01-11 16:23:00,82.8,56.7,30.15,SW,225,6.0,11.0,41,0.00,,,0.01,meteohub,2013-01-11 21:23:00,
2013-01-11 16:28:00,82.8,55.9,30.15,SW,225,7.0,11.0,40,0.00,,,0.01,meteohub,2013-01-11 21:28:00,
2013-01-11 16:33:00,82.6,59.0,30.15,West,270,8.0,8.0,45,0.00,,,0.01,meteohub,2013-01-11 21:33:00,
2013-01-11 16:38:00,82.0,61.5,30.15,SW,225,8.0,9.0,50,0.00,,,0.01,meteohub,2013-01-11 21:38:00,
2013-01-11 16:43:00,81.5,62.2,30.15,South,180,11.0,13.0,52,0.00,,,0.01,meteohub,2013-01-11 21:43:00,
2013-01-11 16:48:00,81.0,62.8,30.15,SW,225,7.0,13.0,54,0.00,,,0.01,meteohub,2013-01-11 21:48:00,
2013-01-11 16:54:00,80.8,62.6,30.15,South,180,9.0,14.0,54,0.00,,,0.01,meteohub,2013-01-11 21:54:00,
2013-01-11 16:59:00,80.4,65.3,30.16,South,180,12.0,14.0,60,0.00,,,0.01,meteohub,2013-01-11 21:59:00,
2013-01-11 17:04:00,79.9,67.1,30.16,South,180,8.0,11.0,65,0.00,,,0.01,meteohub,2013-01-11 22:04:00,
2013-01-11 17:09:00,79.3,67.8,30.16,South,180,10.0,15.0,68,0.00,,,0.01,meteohub,2013-01-11 22:09:00,
2013-01-11 17:14:00,78.8,67.8,30.16,South,180,11.0,15.0,69,0.00,,,0.01,meteohub,2013-01-11 22:14:00,
2013-01-11 17:19:00,78.4,68.2,30.16,South,180,9.0,13.0,71,0.00,,,0.01,meteohub,2013-01-11 22:19:00,
2013-01-11 17:24:00,78.3,68.5,30.16,South,180,9.0,16.0,72,0.00,,,0.01,meteohub,2013-01-11 22:24:00,
2013-01-11 17:29:00,78.1,68.7,30.16,South,180,8.0,16.0,73,0.00,,,0.01,meteohub,2013-01-11 22:29:00,
2013-01-11 17:34:00,78.1,68.7,30.16,South,180,8.0,13.0,73,0.00,,,0.01,meteohub,2013-01-11 22:34:00,
2013-01-11 17:39:00,77.7,68.7,30.16,South,180,8.0,13.0,74,0.00,,,0.01,meteohub,2013-01-11 22:39:00,
2013-01-11 17:44:00,77.5,68.5,30.16,South,180,7.0,13.0,74,0.00,,,0.01,meteohub,2013-01-11 22:44:00,
2013-01-11 17:50:00,77.4,68.9,30.16,South,180,6.0,9.0,75,0.00,,,0.01,meteohub,2013-01-11 22:50:00,
2013-01-11 17:55:00,77.2,69.1,30.16,South,180,10.0,10.0,76,0.00,,,0.01,meteohub,2013-01-11 22:55:00,
2013-01-11 18:00:00,77.0,69.3,30.16,South,180,5.0,9.0,77,0.00,,,0.01,meteohub,2013-01-11 23:00:00,
2013-01-11 18:05:00,76.6,69.3,30.16,South,180,3.0,11.0,78,0.00,,,0.01,meteohub,2013-01-11 23:05:00,
2013-01-11 18:10:00,76.5,69.4,30.16,SE,135,4.0,11.0,79,0.00,,,0.01,meteohub,2013-01-11 23:10:00,
2013-01-11 18:15:00,76.1,69.4,30.16,South,180,5.0,9.0,80,0.00,,,0.01,meteohub,2013-01-11 23:15:00,
2013-01-11 18:20:00,75.9,69.6,30.16,South,180,4.0,8.0,81,0.00,,,0.01,meteohub,2013-01-11 23:20:00,
2013-01-11 18:25:00,75.6,70.0,30.16,South,180,2.0,7.0,83,0.00,,,0.01,meteohub,2013-01-11 23:25:00,
2013-01-11 18:30:00,75.4,69.8,30.16,South,180,3.0,7.0,83,0.00,,,0.01,meteohub,2013-01-11 23:30:00,
2013-01-11 18:35:00,75.4,69.8,30.17,South,180,3.0,7.0,83,0.00,,,0.01,meteohub,2013-01-11 23:35:00,
2013-01-11 18:41:00,74.8,70.3,30.17,SE,135,4.0,5.0,86,0.00,,,0.01,meteohub,2013-01-11 23:41:00,
2013-01-11 18:46:00,74.7,70.5,30.17,South,180,3.0,5.0,87,0.00,,,0.01,meteohub,2013-01-11 23:46:00,
2013-01-11 18:51:00,74.5,70.7,30.17,South,180,4.0,5.0,88,0.00,,,0.01,meteohub,2013-01-11 23:51:00,
2013-01-11 18:56:00,74.3,71.2,30.17,South,180,4.0,7.0,90,0.00,,,0.01,meteohub,2013-01-11 23:56:00,
2013-01-11 19:01:00,74.1,71.2,30.17,South,180,2.0,7.0,91,0.00,,,0.01,meteohub,2013-01-12 00:01:00,
2013-01-11 19:06:00,74.1,71.2,30.17,South,180,2.0,7.0,91,0.00,,,0.00,meteohub,2013-01-12 00:06:00,
2013-01-11 19:11:00,73.6,71.1,30.17,South,180,4.0,4.0,92,0.00,,,0.00,meteohub,2013-01-12 00:11:00,
2013-01-11 19:16:00,73.4,71.6,30.17,SW,225,3.0,5.0,94,0.00,,,0.00,meteohub,2013-01-12 00:16:00,
2013-01-11 19:21:00,73.4,71.6,30.18,South,180,4.0,5.0,94,0.00,,,0.00,meteohub,2013-01-12 00:21:00,
2013-01-11 19:26:00,73.2,71.1,30.18,South,180,4.0,5.0,93,0.00,,,0.00,meteohub,2013-01-12 00:26:00,
2013-01-11 19:32:00,73.0,70.9,30.18,SE,135,2.0,5.0,93,0.00,,,0.00,meteohub,2013-01-12 00:32:00,
2013-01-11 19:37:00,72.7,70.5,30.18,South,180,4.0,5.0,93,0.00,,,0.00,meteohub,2013-01-12 00:37:00,
2013-01-11 19:42:00,72.3,70.9,30.18,South,180,3.0,5.0,95,0.00,,,0.00,meteohub,2013-01-12 00:42:00,
2013-01-11 19:47:00,72.1,71.2,30.19,South,180,2.0,4.0,97,0.00,,,0.00,meteohub,2013-01-12 00:47:00,
2013-01-11 19:52:00,72.1,71.2,30.19,SE,135,2.0,4.0,97,0.00,,,0.00,meteohub,2013-01-12 00:52:00,
2013-01-11 19:57:00,72.0,71.1,30.19,South,180,3.0,4.0,97,0.00,,,0.00,meteohub,2013-01-12 00:57:00,
2013-01-11 20:02:00,71.8,70.9,30.18,SE,135,2.0,3.0,97,0.00,,,0.00,meteohub,2013-01-12 01:02:00,
2013-01-11 20:07:00,71.8,70.9,30.18,SE,135,2.0,3.0,97,0.00,,,0.00,meteohub,2013-01-12 01:07:00,
2013-01-11 20:12:00,71.1,70.5,30.19,SE,135,2.0,3.0,98,0.00,,,0.00,meteohub,2013-01-12 01:12:00,
2013-01-11 20:17:00,70.9,70.5,30.19,SE,135,2.0,2.0,99,0.00,,,0.00,meteohub,2013-01-12 01:17:00,
2013-01-11 20:22:00,70.5,70.2,30.18,South,180,3.0,3.0,99,0.00,,,0.00,meteohub,2013-01-12 01:22:00,
2013-01-11 20:27:00,70.5,70.2,30.18,South,180,4.0,4.0,99,0.00,,,0.00,meteohub,2013-01-12 01:27:00,
2013-01-11 20:32:00,70.5,70.2,30.18,South,180,5.0,5.0,99,0.00,,,0.00,meteohub,2013-01-12 01:32:00,
2013-01-11 20:37:00,70.5,70.2,30.18,South,180,3.0,5.0,99,0.00,,,0.00,meteohub,2013-01-12 01:37:00,
2013-01-11 20:42:00,70.5,70.2,30.18,SE,135,4.0,5.0,99,0.00,,,0.00,meteohub,2013-01-12 01:42:00,
2013-01-11 20:47:00,70.3,70.0,30.18,South,180,7.0,7.0,99,0.00,,,0.00,meteohub,2013-01-12 01:47:00,
2013-01-11 20:52:00,70.2,69.8,30.19,South,180,4.0,7.0,99,0.00,,,0.00,meteohub,2013-01-12 01:52:00,
2013-01-11 20:57:00,70.2,69.8,30.19,South,180,2.0,7.0,99,0.00,,,0.00,meteohub,2013-01-12 01:57:00,
2013-01-11 21:03:00,70.0,69.6,30.19,South,180,2.0,7.0,99,0.00,,,0.00,meteohub,2013-01-12 02:03:00,
2013-01-11 21:08:00,70.0,69.6,30.19,South,180,2.0,6.0,99,0.00,,,0.00,meteohub,2013-01-12 02:08:00,
2013-01-11 21:13:00,69.8,69.4,30.19,South,180,2.0,6.0,99,0.00,,,0.00,meteohub,2013-01-12 02:13:00,
2013-01-11 21:18:00,69.8,69.4,30.19,SE,135,2.0,4.0,99,0.00,,,0.00,meteohub,2013-01-12 02:18:00,
2013-01-11 21:23:00,69.6,69.3,30.19,SE,135,1.0,4.0,99,0.00,,,0.00,meteohub,2013-01-12 02:23:00,
2013-01-11 21:28:00,69.4,69.1,30.19,South,180,2.0,4.0,99,0.00,,,0.00,meteohub,2013-01-12 02:28:00,
2013-01-11 21:33:00,69.4,69.1,30.20,ESE,113,2.0,3.0,99,0.00,,,0.00,meteohub,2013-01-12 02:33:00,
2013-01-11 21:38:00,69.3,68.9,30.20,South,180,3.0,4.0,99,0.00,,,0.00,meteohub,2013-01-12 02:38:00,
2013-01-11 21:43:00,69.3,68.9,30.20,South,180,1.0,4.0,99,0.00,,,0.00,meteohub,2013-01-12 02:43:00,
2013-01-11 21:49:00,69.3,68.9,30.20,South,180,4.0,4.0,99,0.00,,,0.00,meteohub,2013-01-12 02:49:00,
2013-01-11 21:54:00,69.1,68.7,30.20,South,180,2.0,3.0,99,0.00,,,0.00,meteohub,2013-01-12 02:54:00,
2013-01-11 21:59:00,68.9,68.5,30.20,SSW,203,2.0,4.0,99,0.00,,,0.00,meteohub,2013-01-12 02:59:00,
2013-01-11 22:04:00,68.9,68.5,30.20,South,180,2.0,4.0,99,0.00,,,0.00,meteohub,2013-01-12 03:04:00,
2013-01-11 22:09:00,68.7,68.4,30.20,South,180,3.0,3.0,99,0.00,,,0.00,meteohub,2013-01-12 03:09:00,
2013-01-11 22:14:00,68.7,68.4,30.20,SW,225,2.0,4.0,99,0.00,,,0.00,meteohub,2013-01-12 03:14:00,
2013-01-11 22:19:00,68.7,68.4,30.20,SW,225,3.0,4.0,99,0.00,,,0.00,meteohub,2013-01-12 03:19:00,
2013-01-11 22:24:00,68.5,68.2,30.20,South,180,3.0,4.0,99,0.00,,,0.00,meteohub,2013-01-12 03:24:00,
2013-01-11 22:30:00,68.5,68.2,30.20,South,180,2.0,4.0,99,0.00,,,0.00,meteohub,2013-01-12 03:30:00,
2013-01-11 22:35:00,68.4,68.0,30.21,SW,225,2.0,4.0,99,0.00,,,0.00,meteohub,2013-01-12 03:35:00,
2013-01-11 22:40:00,68.2,67.8,30.20,SW,225,2.0,4.0,99,0.00,,,0.00,meteohub,2013-01-12 03:40:00,
2013-01-11 22:45:00,68.2,67.8,30.20,SSW,203,2.0,3.0,99,0.00,,,0.00,meteohub,2013-01-12 03:45:00,
2013-01-11 22:50:00,68.0,67.6,30.21,South,180,2.0,3.0,99,0.00,,,0.00,meteohub,2013-01-12 03:50:00,
2013-01-11 22:55:00,67.8,67.5,30.20,SW,225,2.0,3.0,99,0.00,,,0.00,meteohub,2013-01-12 03:55:00,
2013-01-11 23:00:00,67.8,67.5,30.20,South,180,1.0,3.0,99,0.00,,,0.00,meteohub,2013-01-12 04:00:00,
2013-01-11 23:05:00,67.8,67.5,30.20,South,180,1.0,3.0,99,0.00,,,0.00,meteohub,2013-01-12 04:05:00,
2013-01-11 23:10:00,67.5,67.1,30.20,South,180,2.0,2.0,99,0.00,,,0.00,meteohub,2013-01-12 04:10:00,
2013-01-11 23:16:00,67.3,66.9,30.20,South,180,2.0,3.0,99,0.00,,,0.00,meteohub,2013-01-12 04:16:00,
2013-01-11 23:21:00,67.1,66.7,30.20,SE,135,1.0,3.0,99,0.00,,,0.00,meteohub,2013-01-12 04:21:00,
2013-01-11 23:26:00,66.7,66.4,30.20,SE,135,4.0,4.0,99,0.00,,,0.00,meteohub,2013-01-12 04:26:00,
2013-01-11 23:31:00,66.7,66.4,30.20,South,180,2.0,4.0,99,0.00,,,0.00,meteohub,2013-01-12 04:31:00,
2013-01-11 23:36:00,66.4,66.0,30.19,South,180,2.0,4.0,99,0.00,,,0.00,meteohub,2013-01-12 04:36:00,
2013-01-11 23:41:00,66.2,65.8,30.19,South,180,2.0,4.0,99,0.00,,,0.00,meteohub,2013-01-12 04:41:00,
2013-01-11 23:46:00,66.4,66.0,30.19,SSW,203,2.0,3.0,99,0.00,,,0.00,meteohub,2013-01-12 04:46:00,
2013-01-11 23:51:00,66.2,65.8,30.19,South,180,2.0,3.0,99,0.00,,,0.00,meteohub,2013-01-12 04:51:00,
2013-01-11 23:56:00,66.0,65.7,30.20,South,180,2.0,3.0,99,0.00,,,0.00,meteohub,2013-01-12 04:56:00,